Location: Warszawa
(52.2500°N, 21.0000°E)
Time: 02:13:45
(UTC+01:00)

X-37B - Visible Passes

Search period start: 10 December 2022 00:00
Search period end: 20 December 2022 00:00
Orbit: 277 x 277 km, 45.0° (Epoch: 01 November)

Date Brightness Start Highest point End Pass type
(mag) Time Alt. Az. Time Alt. Az. Time Alt. Az.
11 Dec 2.6 17:03:29 10° SSW 17:04:34 12° SSE 17:05:18 11° SSE visible
12 Dec 2.5 17:03:37 10° SSW 17:05:03 14° S 17:05:57 12° SSE visible
13 Dec 2.5 17:03:59 10° SW 17:05:34 16° S 17:06:37 13° SSE visible
14 Dec 2.5 17:04:29 10° SW 17:06:05 16° S 17:07:19 12° SSE visible
15 Dec 2.7 17:05:06 10° SW 17:06:36 15° S 17:08:06 10° SSE visible
16 Dec 2.9 17:05:53 10° SW 17:07:06 13° SSW 17:08:20 10° SSE visible
17 Dec 3.2 17:07:09 10° SSW 17:07:36 10° SSW 17:08:02 10° S visible
